KZR267 UAAA-ZBAA

Flight info

Callsign KZR267
Flight time 4h 7m
Altitude 33100
Route PIGAL1A PIGAL M610 RULAD/K0852S1010 A343 POSOT B215 NUKTI W66 DKO W69 GUVBA GUVBA4E
Aircraft A21N/M-SDE2E3FGHIRWXY/LB1

Departure

Time 2026-04-20 23:10
Airport Almaty International Airport (UAAA)

Arrival

Time 2026-04-21 03:18
Airport Beijing Capital International Airport (ZBAA)
Time Latitude Longitude Altitude Speed Heading
2026-04-20 22:53 43.35048 77.01237 2229 ft 0 kts 245°
2026-04-20 22:53 43.35016 77.01293 2229 ft 0 kts 245°
2026-04-20 22:54 43.34977 77.01278 2229 ft 0 kts 245°
2026-04-20 23:01 43.34978 77.01279 2229 ft 2 kts 245°
2026-04-20 23:01 43.34984 77.01298 2229 ft 2 kts 245°
2026-04-20 23:02 43.34990 77.01317 2229 ft 2 kts 245°
2026-04-20 23:02 43.34997 77.01335 2229 ft 2 kts 245°
2026-04-20 23:02 43.35003 77.01354 2225 ft 2 kts 245°
2026-04-20 23:02 43.35009 77.01372 2227 ft 2 kts 256°
2026-04-20 23:03 43.35013 77.01393 2228 ft 2 kts 217°
2026-04-20 23:03 43.35026 77.01402 2224 ft 2 kts 183°
2026-04-20 23:03 43.35021 77.01411 2226 ft 2 kts 147°
2026-04-20 23:03 43.35009 77.01421 2229 ft 2 kts 150°
2026-04-20 23:04 43.35005 77.01422 2229 ft 0 kts 158°
2026-04-20 23:06 43.34999 77.01426 2224 ft 2 kts 158°
2026-04-20 23:06 43.34973 77.01440 2227 ft 6 kts 157°
2026-04-20 23:06 43.34930 77.01468 2227 ft 8 kts 155°
2026-04-20 23:06 43.34869 77.01504 2229 ft 11 kts 157°
2026-04-20 23:07 43.34819 77.01504 2226 ft 12 kts 201°
2026-04-20 23:07 43.34739 77.01459 2228 ft 13 kts 200°
2026-04-20 23:07 43.34651 77.01455 2227 ft 14 kts 154°
2026-04-20 23:07 43.34556 77.01482 2228 ft 15 kts 154°
2026-04-20 23:08 43.34457 77.01544 2226 ft 16 kts 156°
2026-04-20 23:08 43.34348 77.01613 2227 ft 18 kts 154°
2026-04-20 23:08 43.34256 77.01671 2230 ft 7 kts 156°
2026-04-20 23:08 43.34247 77.01676 2228 ft 0 kts 156°
2026-04-20 23:09 43.34246 77.01677 2228 ft 1 kts 156°
2026-04-20 23:09 43.34229 77.01687 2230 ft 4 kts 156°
2026-04-20 23:09 43.34191 77.01711 2228 ft 10 kts 155°
2026-04-20 23:09 43.34171 77.01836 2230 ft 18 kts 46°
2026-04-20 23:10 43.34314 77.02129 2226 ft 71 kts 54°
2026-04-20 23:10 43.34733 77.02972 2225 ft 140 kts 55°
2026-04-20 23:10 43.35385 77.04277 2337 ft 181 kts 56°
2026-04-20 23:10 43.36096 77.05727 3049 ft 184 kts 57°
2026-04-20 23:11 43.36796 77.07176 3964 ft 179 kts 57°
2026-04-20 23:11 43.37549 77.08636 4514 ft 197 kts 54°
2026-04-20 23:11 43.38392 77.10255 4939 ft 219 kts 55°
2026-04-20 23:11 43.39307 77.12056 5355 ft 239 kts 56°
2026-04-20 23:12 43.40285 77.14032 5764 ft 262 kts 56°
2026-04-20 23:12 43.41336 77.16184 6368 ft 277 kts 56°
2026-04-20 23:12 43.42417 77.18409 7208 ft 283 kts 56°
2026-04-20 23:12 43.43524 77.20691 8024 ft 290 kts 56°
2026-04-20 23:13 43.44658 77.23026 8851 ft 297 kts 56°
2026-04-20 23:13 43.45822 77.25423 9672 ft 305 kts 56°
2026-04-20 23:13 43.47015 77.27878 10399 ft 314 kts 55°
2026-04-20 23:13 43.48275 77.30467 10742 ft 337 kts 55°
2026-04-20 23:14 43.49620 77.33227 11097 ft 355 kts 55°
2026-04-20 23:14 43.51005 77.36072 11881 ft 359 kts 55°
2026-04-20 23:14 43.52399 77.38935 12658 ft 362 kts 54°
2026-04-20 23:14 43.53807 77.41827 12933 ft 364 kts 54°
2026-04-20 23:15 43.55218 77.44719 12980 ft 364 kts 54°
2026-04-20 23:15 43.56627 77.47616 12982 ft 364 kts 56°
2026-04-20 23:15 43.57716 77.50789 13122 ft 371 kts 72°
2026-04-20 23:15 43.58136 77.54300 13889 ft 373 kts 88°
2026-04-20 23:16 43.58107 77.57885 14637 ft 376 kts 90°
2026-04-20 23:16 43.58066 77.61511 15303 ft 380 kts 90°
2026-04-20 23:16 43.58024 77.65126 15962 ft 384 kts 90°
2026-04-20 23:16 43.57980 77.68886 16606 ft 389 kts 90°
2026-04-20 23:17 43.57933 77.72640 17261 ft 394 kts 90°
2026-04-20 23:17 43.57884 77.76435 17888 ft 398 kts 90°
2026-04-20 23:17 43.57832 77.80275 18495 ft 403 kts 90°
2026-04-20 23:17 43.57780 77.84095 19065 ft 406 kts 90°
2026-04-20 23:18 43.57724 77.87997 19641 ft 409 kts 89°
2026-04-20 23:18 43.57666 77.91933 20215 ft 412 kts 89°
2026-04-20 23:18 43.57607 77.95896 20778 ft 415 kts 89°
2026-04-20 23:18 43.57546 77.99889 21337 ft 418 kts 89°
2026-04-20 23:19 43.57482 78.03917 21890 ft 422 kts 89°
2026-04-20 23:19 43.57416 78.07972 22434 ft 425 kts 89°
2026-04-20 23:19 43.57349 78.12062 22980 ft 428 kts 89°
2026-04-20 23:19 43.57280 78.16181 23505 ft 431 kts 89°
2026-04-20 23:20 43.57210 78.20330 23960 ft 434 kts 89°
2026-04-20 23:20 43.57137 78.24504 24417 ft 437 kts 89°
2026-04-20 23:20 43.57062 78.28703 24856 ft 440 kts 89°
2026-04-20 23:20 43.56985 78.32928 25293 ft 442 kts 89°
2026-04-20 23:21 43.56906 78.37177 25716 ft 445 kts 89°
2026-04-20 23:21 43.56825 78.41447 26134 ft 447 kts 89°
2026-04-20 23:21 43.56742 78.45747 26529 ft 450 kts 89°
2026-04-20 23:21 43.56657 78.50062 26932 ft 452 kts 89°
2026-04-20 23:22 43.56569 78.54408 27317 ft 454 kts 89°
2026-04-20 23:22 43.56480 78.58772 27682 ft 457 kts 89°
2026-04-20 23:22 43.56388 78.63164 28063 ft 459 kts 89°
2026-04-20 23:22 43.56295 78.67571 28423 ft 461 kts 89°
2026-04-20 23:23 43.56199 78.71999 28766 ft 463 kts 89°
2026-04-20 23:23 43.56100 78.76450 29112 ft 465 kts 89°
2026-04-20 23:23 43.56000 78.80920 29437 ft 468 kts 89°
2026-04-20 23:23 43.55897 78.85413 29771 ft 470 kts 89°
2026-04-20 23:24 43.55792 78.89919 30085 ft 472 kts 89°
2026-04-20 23:24 43.55685 78.94452 30367 ft 474 kts 89°
2026-04-20 23:24 43.55576 78.98996 30661 ft 475 kts 89°
2026-04-20 23:24 43.55464 79.03561 30945 ft 477 kts 89°
2026-04-20 23:25 43.55351 79.08138 31238 ft 478 kts 89°
2026-04-20 23:25 43.55235 79.12717 31596 ft 478 kts 89°
2026-04-20 23:25 43.55117 79.17286 31966 ft 477 kts 89°
2026-04-20 23:25 43.54998 79.21850 32333 ft 476 kts 89°
2026-04-20 23:26 43.54879 79.26398 32685 ft 475 kts 89°
2026-04-20 23:26 43.54757 79.30935 33019 ft 474 kts 89°
2026-04-20 23:26 43.54634 79.35414 33208 ft 473 kts 89°
2026-04-20 23:26 43.54509 79.39931 33204 ft 471 kts 89°
2026-04-20 23:27 43.54254 79.48952 33204 ft 471 kts 89°
2026-04-20 23:27 43.53993 79.57971 33198 ft 471 kts 89°
2026-04-20 23:28 43.53722 79.67042 33202 ft 470 kts 89°
2026-04-20 23:28 43.53447 79.76041 33198 ft 470 kts 89°
2026-04-20 23:29 43.53167 79.84973 33199 ft 469 kts 89°
2026-04-20 23:29 43.52878 79.93955 33195 ft 469 kts 89°
2026-04-20 23:30 43.52584 80.02929 33199 ft 469 kts 88°
2026-04-20 23:30 43.52282 80.11891 33199 ft 468 kts 88°
2026-04-20 23:31 43.51973 80.20849 33195 ft 468 kts 88°
2026-04-20 23:31 43.51658 80.29793 33194 ft 467 kts 88°
2026-04-20 23:32 43.51336 80.38733 33196 ft 467 kts 88°
2026-04-20 23:32 43.51008 80.47660 33201 ft 467 kts 88°
2026-04-20 23:33 43.50673 80.56585 33205 ft 466 kts 88°
2026-04-20 23:33 43.50331 80.65498 33208 ft 466 kts 88°
2026-04-20 23:34 43.49984 80.74400 33209 ft 465 kts 88°
2026-04-20 23:34 43.49833 80.83280 33221 ft 463 kts 86°
2026-04-20 23:35 43.49688 80.96519 33219 ft 463 kts 86°
2026-04-20 23:36 43.49552 81.05380 33225 ft 463 kts 86°
2026-04-20 23:36 43.49403 81.14236 33229 ft 462 kts 86°
2026-04-20 23:37 43.49249 81.23086 33232 ft 462 kts 86°
2026-04-20 23:37 43.49088 81.31923 33232 ft 462 kts 86°
2026-04-20 23:38 43.48921 81.40754 33235 ft 461 kts 86°
2026-04-20 23:38 43.48748 81.49573 33241 ft 460 kts 86°
2026-04-20 23:39 43.48567 81.58373 33242 ft 460 kts 86°
2026-04-20 23:39 43.48380 81.67173 33245 ft 459 kts 86°
2026-04-20 23:40 43.48181 81.75958 33251 ft 459 kts 86°
2026-04-20 23:40 43.47964 81.84731 33260 ft 458 kts 86°
2026-04-20 23:41 43.47744 81.93497 33269 ft 458 kts 86°
2026-04-20 23:41 43.47518 82.02254 33275 ft 457 kts 86°
2026-04-20 23:42 43.47286 82.10991 33287 ft 457 kts 86°
2026-04-20 23:42 43.47047 82.19721 33297 ft 456 kts 86°
2026-04-20 23:43 43.46802 82.28440 33305 ft 456 kts 86°
2026-04-20 23:43 43.46551 82.37150 33313 ft 455 kts 86°
2026-04-20 23:44 43.46295 82.45798 33315 ft 455 kts 86°
2026-04-20 23:44 43.46031 82.54489 33317 ft 455 kts 86°
2026-04-20 23:45 43.45760 82.63179 33321 ft 454 kts 86°
2026-04-20 23:45 43.45483 82.71857 33323 ft 454 kts 86°
2026-04-20 23:46 43.45201 82.80527 33319 ft 453 kts 86°
2026-04-20 23:46 43.44912 82.89195 33316 ft 453 kts 86°
2026-04-20 23:47 43.44616 82.97853 33314 ft 453 kts 86°
2026-04-20 23:47 43.44314 83.06512 33309 ft 453 kts 86°
2026-04-20 23:48 43.44006 83.15161 33305 ft 452 kts 86°
2026-04-20 23:48 43.43692 83.23802 33307 ft 452 kts 86°
2026-04-20 23:49 43.43372 83.32440 33308 ft 452 kts 86°
2026-04-20 23:49 43.42907 83.41078 33303 ft 455 kts 90°
2026-04-20 23:50 43.42171 83.49717 33307 ft 455 kts 90°
2026-04-20 23:50 43.41452 83.58360 33318 ft 455 kts 90°
2026-04-20 23:51 43.40723 83.67008 33320 ft 455 kts 91°
2026-04-20 23:51 43.39983 83.75658 33323 ft 456 kts 91°
2026-04-20 23:52 43.39237 83.84302 33341 ft 455 kts 91°
2026-04-20 23:52 43.38485 83.92946 33342 ft 455 kts 91°
2026-04-20 23:53 43.37726 84.01583 33345 ft 455 kts 91°
2026-04-20 23:53 43.36959 84.10219 33352 ft 455 kts 92°
2026-04-20 23:54 43.36319 84.17388 33356 ft 455 kts 92°
2026-04-20 23:54 43.35541 84.26020 33359 ft 455 kts 92°
2026-04-20 23:55 43.34757 84.34651 33367 ft 455 kts 92°
2026-04-20 23:55 43.33955 84.43283 33372 ft 456 kts 92°
2026-04-20 23:56 43.33132 84.51926 33381 ft 457 kts 93°
2026-04-20 23:56 43.32306 84.60572 33381 ft 457 kts 93°
2026-04-20 23:57 43.31473 84.69226 33379 ft 457 kts 93°
2026-04-20 23:57 43.30631 84.77886 33376 ft 458 kts 94°
2026-04-20 23:58 43.29785 84.86545 33375 ft 458 kts 94°
2026-04-20 23:58 43.28930 84.95201 33368 ft 457 kts 94°
2026-04-20 23:59 43.28077 85.03794 33365 ft 457 kts 94°
2026-04-20 23:59 43.27211 85.12447 33354 ft 458 kts 94°
2026-04-21 00:00 43.26330 85.21156 33356 ft 458 kts 95°
2026-04-21 00:00 43.25457 85.29746 33349 ft 458 kts 95°
2026-04-21 00:01 43.24569 85.38391 33349 ft 457 kts 95°
2026-04-21 00:01 43.23678 85.47024 33354 ft 457 kts 95°
2026-04-21 00:02 43.22780 85.55639 33345 ft 456 kts 95°
2026-04-21 00:02 43.21876 85.64253 33352 ft 456 kts 95°
2026-04-21 00:03 43.20967 85.72864 33355 ft 457 kts 96°
2026-04-21 00:03 43.20050 85.81475 33350 ft 457 kts 96°
2026-04-21 00:04 43.19132 85.90099 33353 ft 457 kts 94°
2026-04-21 00:04 43.19079 85.94420 33344 ft 453 kts 81°
2026-04-21 00:04 43.19686 85.98626 33336 ft 448 kts 69°
2026-04-21 00:04 43.20896 86.02528 33328 ft 444 kts 58°
2026-04-21 00:05 43.22558 86.06079 33327 ft 443 kts 54°
2026-04-21 00:05 43.25970 86.13118 33325 ft 444 kts 54°
2026-04-21 00:06 43.29371 86.20189 33323 ft 444 kts 54°
2026-04-21 00:06 43.32802 86.27265 33325 ft 446 kts 54°
2026-04-21 00:07 43.36252 86.34348 33323 ft 446 kts 54°
2026-04-21 00:07 43.39698 86.41453 33315 ft 447 kts 54°
2026-04-21 00:08 43.43147 86.48576 33308 ft 447 kts 54°
2026-04-21 00:08 43.46613 86.55686 33302 ft 448 kts 54°
2026-04-21 00:09 43.50081 86.62814 33294 ft 448 kts 54°
2026-04-21 00:09 43.53571 86.70007 33273 ft 458 kts 54°
2026-04-21 00:10 43.57083 86.77335 33272 ft 457 kts 55°
2026-04-21 00:10 43.60554 86.84688 33268 ft 458 kts 55°
2026-04-21 00:11 43.64028 86.92052 33267 ft 458 kts 55°
2026-04-21 00:11 43.67501 86.99421 33263 ft 458 kts 55°
2026-04-21 00:12 43.70972 87.06801 33265 ft 458 kts 55°
2026-04-21 00:12 43.74436 87.14186 33253 ft 458 kts 56°
2026-04-21 00:13 43.77893 87.21588 33256 ft 458 kts 56°
2026-04-21 00:13 43.81344 87.28999 33258 ft 458 kts 56°
2026-04-21 00:14 43.84795 87.36426 33259 ft 458 kts 56°
2026-04-21 00:14 43.88241 87.43862 33255 ft 459 kts 56°
2026-04-21 00:15 43.91735 87.51263 33253 ft 458 kts 53°
2026-04-21 00:15 43.95575 87.58318 33256 ft 458 kts 51°
2026-04-21 00:16 43.99409 87.65320 33254 ft 459 kts 51°
2026-04-21 00:16 44.03265 87.72385 33252 ft 459 kts 52°
2026-04-21 00:17 44.07118 87.79463 33250 ft 459 kts 52°
2026-04-21 00:17 44.10969 87.86555 33249 ft 460 kts 52°
2026-04-21 00:18 44.14369 87.94071 33249 ft 462 kts 68°
2026-04-21 00:18 44.15253 87.98367 33246 ft 463 kts 80°
2026-04-21 00:18 44.15489 88.02838 33245 ft 464 kts 92°
2026-04-21 00:18 44.15061 88.07293 33250 ft 465 kts 104°
2026-04-21 00:19 44.14068 88.11585 33247 ft 466 kts 109°
2026-04-21 00:19 44.11931 88.20109 33258 ft 467 kts 109°
2026-04-21 00:20 44.09800 88.28654 33264 ft 468 kts 109°
2026-04-21 00:20 44.07666 88.37201 33275 ft 468 kts 109°
2026-04-21 00:21 44.05525 88.45738 33276 ft 468 kts 109°
2026-04-21 00:21 44.03378 88.54269 33282 ft 467 kts 109°
2026-04-21 00:22 44.01227 88.62783 33285 ft 467 kts 109°
2026-04-21 00:22 43.99071 88.71282 33287 ft 466 kts 109°
2026-04-21 00:23 43.96908 88.79771 33291 ft 466 kts 109°
2026-04-21 00:23 43.94871 88.88298 33286 ft 465 kts 107°
2026-04-21 00:24 43.92979 88.96877 33289 ft 465 kts 107°
2026-04-21 00:24 43.91056 89.05432 33290 ft 464 kts 107°
2026-04-21 00:25 43.89112 89.13968 33297 ft 464 kts 107°
2026-04-21 00:25 43.87161 89.22483 33299 ft 463 kts 107°
2026-04-21 00:26 43.85206 89.30989 33299 ft 463 kts 107°
2026-04-21 00:26 43.83248 89.39476 33303 ft 462 kts 107°
2026-04-21 00:27 43.81296 89.47898 33300 ft 462 kts 107°
2026-04-21 00:27 43.79346 89.56374 33300 ft 462 kts 106°
2026-04-21 00:28 43.77456 89.64869 33304 ft 462 kts 106°
2026-04-21 00:28 43.75557 89.73357 33309 ft 462 kts 106°
2026-04-21 00:29 43.73646 89.81833 33310 ft 462 kts 106°
2026-04-21 00:29 43.71727 89.90301 33314 ft 461 kts 107°
2026-04-21 00:30 43.69804 89.98755 33315 ft 461 kts 107°
2026-04-21 00:30 43.67874 90.07207 33317 ft 461 kts 107°
2026-04-21 00:31 43.66015 90.15681 33312 ft 461 kts 105°
2026-04-21 00:31 43.64218 90.24179 33306 ft 461 kts 105°
2026-04-21 00:32 43.62399 90.32670 33301 ft 461 kts 105°
2026-04-21 00:32 43.60567 90.41142 33297 ft 461 kts 105°
2026-04-21 00:33 43.58728 90.49609 33282 ft 460 kts 105°
2026-04-21 00:33 43.56884 90.58066 33271 ft 461 kts 105°
2026-04-21 00:34 43.55033 90.66524 33262 ft 461 kts 106°
2026-04-21 00:34 43.53175 90.74978 33256 ft 461 kts 106°
2026-04-21 00:35 43.51310 90.83429 33248 ft 461 kts 106°
2026-04-21 00:35 43.49451 90.91824 33242 ft 461 kts 106°
2026-04-21 00:36 43.47573 91.00270 33232 ft 461 kts 106°
2026-04-21 00:36 43.45687 91.08718 33228 ft 462 kts 106°
2026-04-21 00:37 43.43795 91.17164 33217 ft 462 kts 107°
2026-04-21 00:37 43.41892 91.25616 33213 ft 463 kts 107°
2026-04-21 00:38 43.39984 91.34069 33210 ft 463 kts 107°
2026-04-21 00:38 43.38061 91.42513 33208 ft 463 kts 107°
2026-04-21 00:39 43.36138 91.50946 33202 ft 463 kts 107°
2026-04-21 00:39 43.34208 91.59381 33190 ft 462 kts 107°
2026-04-21 00:40 43.32273 91.67800 33182 ft 462 kts 107°
2026-04-21 00:40 43.30332 91.76209 33176 ft 462 kts 107°
2026-04-21 00:41 43.28386 91.84610 33175 ft 462 kts 107°
2026-04-21 00:41 43.26765 91.91583 33171 ft 461 kts 108°
2026-04-21 00:42 43.24810 91.99961 33162 ft 461 kts 108°
2026-04-21 00:42 43.22851 92.08332 33161 ft 461 kts 108°
2026-04-21 00:43 43.20885 92.16694 33154 ft 461 kts 108°
2026-04-21 00:43 43.18914 92.25047 33152 ft 461 kts 108°
2026-04-21 00:44 43.16938 92.33393 33148 ft 460 kts 108°
2026-04-21 00:44 43.14957 92.41731 33143 ft 460 kts 108°
2026-04-21 00:45 43.11975 92.54220 33136 ft 460 kts 108°
2026-04-21 00:45 43.09992 92.62486 33135 ft 460 kts 109°
2026-04-21 00:46 43.07978 92.70854 33135 ft 460 kts 109°
2026-04-21 00:46 43.05985 92.79101 33135 ft 459 kts 109°
2026-04-21 00:47 43.03974 92.87392 33133 ft 459 kts 109°
2026-04-21 00:47 43.01944 92.95734 33131 ft 460 kts 109°
2026-04-21 00:48 43.00262 93.02619 33132 ft 459 kts 109°
2026-04-21 00:49 42.95775 93.20890 33128 ft 459 kts 110°
2026-04-21 00:49 42.93738 93.29142 33126 ft 458 kts 110°
2026-04-21 00:50 42.91698 93.37378 33127 ft 458 kts 110°
2026-04-21 00:50 42.89656 93.45590 33126 ft 457 kts 110°
2026-04-21 00:51 42.87609 93.53789 33128 ft 456 kts 110°
2026-04-21 00:51 42.85539 93.61897 33131 ft 455 kts 114°
2026-04-21 00:52 42.82551 93.69430 33134 ft 451 kts 127°
2026-04-21 00:52 42.78579 93.75998 33137 ft 449 kts 132°
2026-04-21 00:53 42.74535 93.82453 33143 ft 448 kts 132°
2026-04-21 00:53 42.70494 93.88896 33130 ft 447 kts 132°
2026-04-21 00:54 42.66446 93.95322 33127 ft 448 kts 132°
2026-04-21 00:54 42.62391 94.01745 33119 ft 448 kts 132°
2026-04-21 00:55 42.58327 94.08166 33121 ft 448 kts 132°
2026-04-21 00:55 42.54256 94.14587 33122 ft 449 kts 132°
2026-04-21 00:56 42.50171 94.21015 33132 ft 450 kts 132°
2026-04-21 00:56 42.46077 94.27443 33132 ft 451 kts 132°
2026-04-21 00:57 42.41970 94.33877 33135 ft 452 kts 132°
2026-04-21 00:57 42.37851 94.40316 33137 ft 453 kts 132°
2026-04-21 00:58 42.33721 94.46758 33140 ft 454 kts 132°
2026-04-21 00:58 42.29583 94.53200 33141 ft 454 kts 132°
2026-04-21 00:59 42.25435 94.59643 33150 ft 455 kts 133°
2026-04-21 00:59 42.21278 94.66087 33148 ft 455 kts 133°
2026-04-21 01:00 42.17113 94.72529 33146 ft 456 kts 133°
2026-04-21 01:00 42.12964 94.78933 33147 ft 457 kts 133°
2026-04-21 01:01 42.08775 94.85382 33145 ft 458 kts 133°
2026-04-21 01:01 42.04572 94.91840 33145 ft 459 kts 133°
2026-04-21 01:02 42.00357 94.98301 33138 ft 460 kts 134°
2026-04-21 01:02 41.96131 95.04765 33149 ft 461 kts 134°
2026-04-21 01:03 41.91889 95.11239 33155 ft 462 kts 134°
2026-04-21 01:03 41.87970 95.18094 33152 ft 468 kts 119°
2026-04-21 01:04 41.86753 95.22162 33145 ft 473 kts 107°
2026-04-21 01:04 41.86181 95.26519 33141 ft 477 kts 95°
2026-04-21 01:04 41.86275 95.35449 33148 ft 480 kts 89°
2026-04-21 01:05 41.86470 95.44402 33153 ft 481 kts 90°
2026-04-21 01:05 41.86589 95.53383 33154 ft 482 kts 90°
2026-04-21 01:06 41.86678 95.62368 33169 ft 482 kts 91°
2026-04-21 01:06 41.86759 95.71348 33172 ft 481 kts 91°
2026-04-21 01:07 41.86835 95.80316 33179 ft 480 kts 91°
2026-04-21 01:07 41.86905 95.89269 33173 ft 480 kts 91°
2026-04-21 01:08 41.86968 95.98209 33170 ft 479 kts 91°
2026-04-21 01:08 41.87025 96.07130 33173 ft 478 kts 91°
2026-04-21 01:09 41.87075 96.16042 33171 ft 477 kts 91°
2026-04-21 01:09 41.87119 96.24945 33159 ft 477 kts 91°
2026-04-21 01:10 41.87244 96.33842 33165 ft 477 kts 90°
2026-04-21 01:10 41.87408 96.42744 33153 ft 477 kts 90°
2026-04-21 01:11 41.87559 96.51644 33155 ft 477 kts 90°
2026-04-21 01:11 41.87696 96.60544 33152 ft 477 kts 90°
2026-04-21 01:12 41.87822 96.69381 33150 ft 477 kts 90°
2026-04-21 01:12 41.87940 96.78283 33146 ft 477 kts 90°
2026-04-21 01:13 41.88052 96.87196 33148 ft 478 kts 90°
2026-04-21 01:13 41.88156 96.96108 33151 ft 478 kts 91°
2026-04-21 01:14 41.88254 97.05035 33157 ft 479 kts 91°
2026-04-21 01:14 41.88346 97.13974 33156 ft 479 kts 91°
2026-04-21 01:15 41.88430 97.22918 33166 ft 480 kts 91°
2026-04-21 01:15 41.88507 97.31871 33168 ft 480 kts 91°
2026-04-21 01:16 41.88578 97.40840 33172 ft 481 kts 91°
2026-04-21 01:16 41.88642 97.49822 33170 ft 481 kts 91°
2026-04-21 01:17 41.88699 97.58810 33181 ft 482 kts 91°
2026-04-21 01:17 41.88740 97.66285 33178 ft 483 kts 91°
2026-04-21 01:18 41.88784 97.75293 33180 ft 483 kts 91°
2026-04-21 01:18 41.88822 97.84316 33180 ft 483 kts 91°
2026-04-21 01:19 41.88852 97.93336 33183 ft 484 kts 91°
2026-04-21 01:19 41.88875 98.02369 33178 ft 484 kts 91°
2026-04-21 01:20 41.88890 98.11406 33183 ft 484 kts 91°
2026-04-21 01:20 41.88899 98.20445 33180 ft 484 kts 92°
2026-04-21 01:21 41.88901 98.29483 33176 ft 485 kts 92°
2026-04-21 01:21 41.88896 98.38527 33174 ft 485 kts 92°
2026-04-21 01:22 41.88884 98.47573 33164 ft 485 kts 92°
2026-04-21 01:22 41.88864 98.56618 33170 ft 485 kts 92°
2026-04-21 01:23 41.88838 98.65660 33173 ft 485 kts 92°
2026-04-21 01:23 41.88804 98.74702 33170 ft 485 kts 92°
2026-04-21 01:24 41.88764 98.83686 33176 ft 485 kts 92°
2026-04-21 01:24 41.88716 98.92727 33171 ft 485 kts 92°
2026-04-21 01:25 41.88661 99.01773 33177 ft 485 kts 92°
2026-04-21 01:25 41.88599 99.10823 33179 ft 485 kts 93°
2026-04-21 01:26 41.88530 99.19872 33182 ft 485 kts 93°
2026-04-21 01:26 41.88454 99.28930 33168 ft 485 kts 93°
2026-04-21 01:27 41.88370 99.37988 33186 ft 485 kts 93°
2026-04-21 01:27 41.88279 99.47049 33210 ft 487 kts 93°
2026-04-21 01:28 41.88231 99.51593 33483 ft 487 kts 93°
2026-04-21 01:28 41.88181 99.56142 33799 ft 487 kts 93°
2026-04-21 01:28 41.88130 99.60682 34103 ft 486 kts 93°
2026-04-21 01:28 41.88077 99.65220 34329 ft 487 kts 94°
2026-04-21 01:29 41.88023 99.69710 34517 ft 489 kts 94°
2026-04-21 01:29 41.87965 99.74339 34724 ft 490 kts 94°
2026-04-21 01:29 41.87906 99.78912 34903 ft 491 kts 94°
2026-04-21 01:29 41.87845 99.83493 35089 ft 492 kts 94°
2026-04-21 01:30 41.87782 99.88090 35199 ft 493 kts 94°
2026-04-21 01:30 41.87717 99.92689 35193 ft 492 kts 94°
2026-04-21 01:30 41.87582 100.01864 35195 ft 492 kts 94°
2026-04-21 01:31 41.87440 100.10998 35199 ft 493 kts 94°
2026-04-21 01:31 41.87289 100.20184 35187 ft 492 kts 94°
2026-04-21 01:32 41.87132 100.29362 35189 ft 492 kts 94°
2026-04-21 01:32 41.86967 100.38550 35190 ft 493 kts 95°
2026-04-21 01:33 41.86795 100.47734 35184 ft 493 kts 95°
2026-04-21 01:33 41.86615 100.56925 35182 ft 493 kts 95°
2026-04-21 01:34 41.86428 100.66116 35183 ft 493 kts 95°
2026-04-21 01:34 41.86233 100.75310 35181 ft 493 kts 95°
2026-04-21 01:35 41.86030 100.84516 35183 ft 494 kts 95°
2026-04-21 01:35 41.85820 100.93716 35184 ft 494 kts 95°
2026-04-21 01:36 41.85604 101.02925 35180 ft 494 kts 95°
2026-04-21 01:36 41.85383 101.12136 35180 ft 494 kts 95°
2026-04-21 01:37 41.84845 101.21284 35178 ft 490 kts 104°
2026-04-21 01:37 41.83102 101.30037 35174 ft 483 kts 115°
2026-04-21 01:38 41.80760 101.38478 35174 ft 483 kts 115°
2026-04-21 01:38 41.78447 101.46940 35172 ft 484 kts 115°
2026-04-21 01:39 41.76125 101.55391 35172 ft 484 kts 115°
2026-04-21 01:39 41.73792 101.63843 35173 ft 484 kts 115°
2026-04-21 01:40 41.71452 101.72288 35175 ft 484 kts 115°
2026-04-21 01:40 41.69120 101.80674 35180 ft 484 kts 115°
2026-04-21 01:41 41.66751 101.89169 35172 ft 485 kts 115°
2026-04-21 01:41 41.64388 101.97614 35174 ft 485 kts 115°
2026-04-21 01:42 41.62017 102.06055 35183 ft 485 kts 115°
2026-04-21 01:42 41.59656 102.14436 35176 ft 486 kts 115°
2026-04-21 01:43 41.57270 102.22874 35178 ft 486 kts 115°
2026-04-21 01:43 41.54877 102.31313 35177 ft 486 kts 115°
2026-04-21 01:44 41.52476 102.39749 35178 ft 486 kts 115°
2026-04-21 01:44 41.50067 102.48183 35180 ft 487 kts 115°
2026-04-21 01:45 41.47650 102.56620 35180 ft 487 kts 115°
2026-04-21 01:45 41.45227 102.65051 35179 ft 487 kts 115°
2026-04-21 01:46 41.42799 102.73483 35176 ft 487 kts 115°
2026-04-21 01:46 41.40378 102.81917 35173 ft 488 kts 115°
2026-04-21 01:47 41.37950 102.90352 35175 ft 488 kts 115°
2026-04-21 01:47 41.35514 102.98781 35174 ft 488 kts 115°
2026-04-21 01:48 41.33147 103.07246 35169 ft 489 kts 114°
2026-04-21 01:48 41.30818 103.15749 35172 ft 489 kts 114°
2026-04-21 01:49 41.28472 103.24234 35168 ft 489 kts 114°
2026-04-21 01:49 41.26127 103.32658 35169 ft 489 kts 114°
2026-04-21 01:50 41.23758 103.41135 35169 ft 490 kts 114°
2026-04-21 01:50 41.21380 103.49619 35170 ft 490 kts 114°
2026-04-21 01:51 41.18993 103.58103 35176 ft 491 kts 115°
2026-04-21 01:51 41.16598 103.66587 35175 ft 491 kts 115°
2026-04-21 01:52 41.12989 103.79319 35174 ft 492 kts 115°
2026-04-21 01:53 41.10572 103.87812 35175 ft 492 kts 115°
2026-04-21 01:53 41.08147 103.96303 35173 ft 493 kts 115°
2026-04-21 01:54 41.05715 104.04792 35174 ft 493 kts 115°
2026-04-21 01:54 41.03274 104.13285 35175 ft 493 kts 115°
2026-04-21 01:55 41.00824 104.21782 35175 ft 494 kts 115°
2026-04-21 01:55 40.98367 104.30277 35170 ft 495 kts 115°
2026-04-21 01:56 40.96115 104.38903 35172 ft 497 kts 110°
2026-04-21 01:56 40.94091 104.47656 35174 ft 498 kts 110°
2026-04-21 01:57 40.92013 104.56400 35173 ft 498 kts 111°
2026-04-21 01:57 40.89898 104.65128 35177 ft 499 kts 111°
2026-04-21 01:58 40.87769 104.73861 35176 ft 500 kts 111°
2026-04-21 01:58 40.85631 104.82598 35175 ft 500 kts 111°
2026-04-21 01:59 40.83482 104.91351 35180 ft 501 kts 111°
2026-04-21 01:59 40.81324 105.00108 35182 ft 502 kts 111°
2026-04-21 02:00 40.79155 105.08873 35183 ft 503 kts 111°
2026-04-21 02:00 40.76977 105.17644 35183 ft 503 kts 112°
2026-04-21 02:01 40.74790 105.26419 35181 ft 504 kts 112°
2026-04-21 02:01 40.72594 105.35199 35175 ft 505 kts 112°
2026-04-21 02:02 40.70386 105.43991 35173 ft 505 kts 112°
2026-04-21 02:02 40.68185 105.52726 35175 ft 507 kts 112°
2026-04-21 02:03 40.65959 105.61525 35169 ft 507 kts 112°
2026-04-21 02:03 40.63725 105.70326 35167 ft 507 kts 112°
2026-04-21 02:04 40.61481 105.79132 35164 ft 507 kts 112°
2026-04-21 02:04 40.59234 105.87922 35160 ft 507 kts 112°
2026-04-21 02:05 40.56982 105.96697 35159 ft 506 kts 112°
2026-04-21 02:05 40.54726 106.05462 35160 ft 506 kts 112°
2026-04-21 02:06 40.52462 106.14220 35155 ft 506 kts 113°
2026-04-21 02:06 40.50575 106.21495 35154 ft 506 kts 113°
2026-04-21 02:07 40.48301 106.30239 35153 ft 506 kts 113°
2026-04-21 02:07 40.46017 106.38982 35149 ft 506 kts 113°
2026-04-21 02:08 40.43722 106.47736 35154 ft 507 kts 113°
2026-04-21 02:08 40.41417 106.56496 35156 ft 508 kts 113°
2026-04-21 02:09 40.39100 106.65271 35157 ft 510 kts 113°
2026-04-21 02:09 40.36771 106.74059 35158 ft 511 kts 113°
2026-04-21 02:10 40.34427 106.82873 35156 ft 512 kts 113°
2026-04-21 02:10 40.32152 106.91740 35156 ft 517 kts 107°
2026-04-21 02:10 40.31550 106.96402 35158 ft 521 kts 96°
2026-04-21 02:11 40.31529 107.01163 35155 ft 524 kts 86°
2026-04-21 02:11 40.32631 107.10618 35164 ft 526 kts 81°
2026-04-21 02:12 40.33809 107.20081 35175 ft 527 kts 81°
2026-04-21 02:12 40.34975 107.29565 35184 ft 527 kts 81°
2026-04-21 02:13 40.36128 107.38990 35191 ft 527 kts 81°
2026-04-21 02:13 40.37279 107.48472 35187 ft 527 kts 81°
2026-04-21 02:14 40.38423 107.57962 35180 ft 527 kts 81°
2026-04-21 02:14 40.39559 107.67448 35180 ft 526 kts 81°
2026-04-21 02:15 40.40688 107.76938 35181 ft 526 kts 81°
2026-04-21 02:15 40.41808 107.86427 35182 ft 526 kts 81°
2026-04-21 02:16 40.42922 107.95929 35179 ft 526 kts 81°
2026-04-21 02:16 40.44024 108.05427 35174 ft 527 kts 81°
2026-04-21 02:17 40.45119 108.14935 35173 ft 527 kts 81°
2026-04-21 02:17 40.46208 108.24448 35173 ft 527 kts 81°
2026-04-21 02:18 40.47289 108.33966 35175 ft 527 kts 81°
2026-04-21 02:18 40.48361 108.43490 35170 ft 527 kts 81°
2026-04-21 02:19 40.49427 108.53024 35173 ft 528 kts 81°
2026-04-21 02:19 40.50486 108.62566 35173 ft 528 kts 81°
2026-04-21 02:20 40.51537 108.72113 35175 ft 528 kts 81°
2026-04-21 02:20 40.52581 108.81673 35178 ft 529 kts 82°
2026-04-21 02:21 40.53618 108.91239 35177 ft 529 kts 82°
2026-04-21 02:21 40.54648 109.00817 35174 ft 529 kts 82°
2026-04-21 02:22 40.55663 109.10335 35177 ft 529 kts 82°
2026-04-21 02:22 40.56678 109.19927 35172 ft 530 kts 82°
2026-04-21 02:23 40.57686 109.29534 35178 ft 530 kts 82°
2026-04-21 02:23 40.58687 109.39147 35183 ft 531 kts 82°
2026-04-21 02:24 40.59681 109.48776 35183 ft 531 kts 82°
2026-04-21 02:24 40.60667 109.58413 35178 ft 532 kts 82°
2026-04-21 02:25 40.61647 109.68068 35183 ft 532 kts 82°
2026-04-21 02:25 40.62620 109.77731 35186 ft 533 kts 82°
2026-04-21 02:26 40.63584 109.87404 35183 ft 533 kts 82°
2026-04-21 02:26 40.64439 109.97103 35183 ft 534 kts 86°
2026-04-21 02:27 40.64642 110.06865 35180 ft 533 kts 91°
2026-04-21 02:27 40.64580 110.16638 35182 ft 534 kts 91°
2026-04-21 02:28 40.64527 110.26416 35177 ft 534 kts 91°
2026-04-21 02:28 40.64464 110.36198 35180 ft 534 kts 91°
2026-04-21 02:29 40.64391 110.45986 35178 ft 534 kts 91°
2026-04-21 02:29 40.64311 110.55770 35184 ft 535 kts 91°
2026-04-21 02:30 40.64224 110.65564 35185 ft 535 kts 91°
2026-04-21 02:30 40.64131 110.75340 35171 ft 534 kts 91°
2026-04-21 02:31 40.64026 110.85128 35173 ft 535 kts 91°
2026-04-21 02:31 40.63914 110.94930 35178 ft 536 kts 92°
2026-04-21 02:32 40.63793 111.04755 35184 ft 537 kts 92°
2026-04-21 02:32 40.63665 111.14525 35186 ft 538 kts 92°
2026-04-21 02:33 40.63528 111.24374 35191 ft 538 kts 92°
2026-04-21 02:33 40.63382 111.34236 35195 ft 539 kts 92°
2026-04-21 02:34 40.63227 111.44111 35196 ft 540 kts 92°
2026-04-21 02:34 40.63065 111.53990 35198 ft 540 kts 92°
2026-04-21 02:35 40.62893 111.63873 35196 ft 540 kts 92°
2026-04-21 02:35 40.62713 111.73765 35196 ft 541 kts 92°
2026-04-21 02:36 40.62525 111.83674 35197 ft 542 kts 92°
2026-04-21 02:36 40.62338 111.93591 35196 ft 542 kts 92°
2026-04-21 02:37 40.62137 112.03513 35191 ft 543 kts 92°
2026-04-21 02:37 40.61909 112.13452 35183 ft 544 kts 92°
2026-04-21 02:38 40.61682 112.23405 35180 ft 544 kts 92°
2026-04-21 02:38 40.61448 112.33347 35166 ft 545 kts 92°
2026-04-21 02:39 40.61203 112.43341 35175 ft 545 kts 93°
2026-04-21 02:39 40.60906 112.53298 35171 ft 545 kts 95°
2026-04-21 02:40 40.60309 112.63247 35170 ft 546 kts 96°
2026-04-21 02:40 40.59696 112.73203 35172 ft 546 kts 96°
2026-04-21 02:41 40.58893 112.83130 35168 ft 546 kts 98°
2026-04-21 02:41 40.58188 112.93084 35170 ft 547 kts 96°
2026-04-21 02:42 40.57548 113.02990 35171 ft 547 kts 96°
2026-04-21 02:42 40.56882 113.12966 35164 ft 547 kts 97°
2026-04-21 02:43 40.56202 113.22935 35166 ft 548 kts 97°
2026-04-21 02:43 40.55511 113.32913 35167 ft 548 kts 97°
2026-04-21 02:44 40.54810 113.42895 35164 ft 549 kts 97°
2026-04-21 02:44 40.54101 113.52889 35157 ft 549 kts 97°
2026-04-21 02:45 40.53382 113.62895 35154 ft 550 kts 97°
2026-04-21 02:45 40.52654 113.72908 35155 ft 551 kts 97°
2026-04-21 02:46 40.51915 113.82938 35153 ft 551 kts 97°
2026-04-21 02:46 40.51168 113.92972 35154 ft 552 kts 97°
2026-04-21 02:47 40.50448 114.03013 35150 ft 552 kts 95°
2026-04-21 02:47 40.50054 114.13093 35139 ft 553 kts 94°
2026-04-21 02:48 40.49675 114.23181 35146 ft 553 kts 94°
2026-04-21 02:48 40.49246 114.33286 35145 ft 554 kts 95°
2026-04-21 02:49 40.48794 114.43405 35150 ft 555 kts 95°
2026-04-21 02:49 40.48334 114.53530 35147 ft 556 kts 95°
2026-04-21 02:50 40.47865 114.63639 35150 ft 549 kts 95°
2026-04-21 02:50 40.47398 114.73552 35144 ft 544 kts 95°
2026-04-21 02:51 40.46918 114.83498 35146 ft 546 kts 95°
2026-04-21 02:51 40.46431 114.93446 35146 ft 546 kts 95°
2026-04-21 02:52 40.45934 115.03410 35147 ft 547 kts 95°
2026-04-21 02:52 40.45432 115.13338 34837 ft 543 kts 95°
2026-04-21 02:52 40.45179 115.18267 34246 ft 541 kts 95°
2026-04-21 02:53 40.44921 115.23187 33497 ft 539 kts 95°
2026-04-21 02:53 40.44750 115.26443 32873 ft 540 kts 94°
2026-04-21 02:53 40.44489 115.31366 31898 ft 542 kts 94°
2026-04-21 02:53 40.44226 115.36304 30933 ft 543 kts 94°
2026-04-21 02:54 40.43959 115.41256 29951 ft 544 kts 94°
2026-04-21 02:54 40.43691 115.46213 28865 ft 544 kts 94°
2026-04-21 02:54 40.43425 115.51145 28116 ft 537 kts 94°
2026-04-21 02:54 40.43191 115.55977 27665 ft 524 kts 91°
2026-04-21 02:55 40.43134 115.60675 27386 ft 507 kts 89°
2026-04-21 02:55 40.43142 115.65258 26894 ft 498 kts 88°
2026-04-21 02:55 40.43151 115.69767 26370 ft 489 kts 89°
2026-04-21 02:55 40.43141 115.74193 25877 ft 481 kts 89°
2026-04-21 02:56 40.43117 115.78549 25392 ft 474 kts 89°
2026-04-21 02:56 40.43044 115.87173 24716 ft 472 kts 89°
2026-04-21 02:56 40.43001 115.91492 24036 ft 474 kts 89°
2026-04-21 02:57 40.42956 115.95823 23218 ft 475 kts 89°
2026-04-21 02:57 40.42909 116.00120 22690 ft 466 kts 89°
2026-04-21 02:57 40.42860 116.04314 22324 ft 454 kts 89°
2026-04-21 02:57 40.42812 116.08420 21862 ft 446 kts 89°
2026-04-21 02:58 40.42765 116.12461 21398 ft 439 kts 89°
2026-04-21 02:58 40.42716 116.16426 20932 ft 430 kts 89°
2026-04-21 02:58 40.42667 116.20315 20475 ft 423 kts 89°
2026-04-21 02:58 40.42619 116.24148 19914 ft 418 kts 89°
2026-04-21 02:59 40.42570 116.27971 19150 ft 420 kts 88°
2026-04-21 02:59 40.42519 116.31769 18364 ft 423 kts 88°
2026-04-21 02:59 40.42468 116.35633 17393 ft 425 kts 89°
2026-04-21 02:59 40.42415 116.39507 16627 ft 422 kts 89°
2026-04-21 03:00 40.42359 116.43326 15927 ft 416 kts 89°
2026-04-21 03:00 40.42158 116.47139 15189 ft 410 kts 99°
2026-04-21 03:00 40.41273 116.50607 14323 ft 405 kts 117°
2026-04-21 03:00 40.39669 116.53599 13403 ft 398 kts 134°
2026-04-21 03:01 40.37579 116.55863 12486 ft 391 kts 146°
2026-04-21 03:01 40.35283 116.57691 11585 ft 382 kts 156°
2026-04-21 03:01 40.32911 116.59194 10730 ft 376 kts 156°
2026-04-21 03:01 40.30612 116.60676 10322 ft 357 kts 156°
2026-04-21 03:02 40.28452 116.62071 10114 ft 336 kts 156°
2026-04-21 03:02 40.26420 116.63378 9919 ft 315 kts 156°
2026-04-21 03:02 40.24502 116.64604 9573 ft 302 kts 156°
2026-04-21 03:02 40.22612 116.65806 8919 ft 302 kts 156°
2026-04-21 03:03 40.20723 116.67003 8460 ft 301 kts 156°
2026-04-21 03:03 40.18852 116.68189 8059 ft 298 kts 156°
2026-04-21 03:03 40.16991 116.69367 7640 ft 296 kts 156°
2026-04-21 03:03 40.15144 116.70535 7237 ft 294 kts 156°
2026-04-21 03:04 40.13318 116.71689 6966 ft 287 kts 157°
2026-04-21 03:04 40.11454 116.72572 6613 ft 284 kts 169°
2026-04-21 03:04 40.09531 116.72958 6514 ft 278 kts 177°
2026-04-21 03:04 40.07630 116.73227 6456 ft 270 kts 176°
2026-04-21 03:05 40.05799 116.73511 6373 ft 260 kts 176°
2026-04-21 03:05 40.04038 116.73787 6262 ft 250 kts 176°
2026-04-21 03:05 40.02333 116.74057 6125 ft 242 kts 176°
2026-04-21 03:05 40.00638 116.74319 6093 ft 249 kts 176°
2026-04-21 03:06 39.98952 116.74576 6036 ft 246 kts 176°
2026-04-21 03:06 39.97258 116.74838 5809 ft 244 kts 176°
2026-04-21 03:06 39.95573 116.75098 5439 ft 244 kts 176°
2026-04-21 03:06 39.93887 116.75360 5081 ft 244 kts 176°
2026-04-21 03:07 39.92208 116.75618 4715 ft 242 kts 176°
2026-04-21 03:07 39.90544 116.75879 4402 ft 239 kts 176°
2026-04-21 03:07 39.88897 116.76131 4082 ft 237 kts 176°
2026-04-21 03:07 39.87279 116.76377 3987 ft 237 kts 176°
2026-04-21 03:08 39.85637 116.76623 3992 ft 237 kts 176°
2026-04-21 03:08 39.83997 116.76874 3984 ft 237 kts 176°
2026-04-21 03:08 39.82368 116.77124 3986 ft 236 kts 175°
2026-04-21 03:08 39.80736 116.77372 3985 ft 236 kts 175°
2026-04-21 03:09 39.79101 116.77604 3980 ft 236 kts 181°
2026-04-21 03:09 39.77545 116.77120 3981 ft 231 kts 214°
2026-04-21 03:09 39.76456 116.75645 3981 ft 227 kts 246°
2026-04-21 03:09 39.76068 116.73671 3982 ft 228 kts 262°
2026-04-21 03:10 39.75841 116.71641 3978 ft 227 kts 263°
2026-04-21 03:10 39.75620 116.69613 3985 ft 227 kts 262°
2026-04-21 03:10 39.75581 116.67573 3986 ft 227 kts 284°
2026-04-21 03:10 39.76337 116.65809 3975 ft 222 kts 317°
2026-04-21 03:11 39.77629 116.64933 3988 ft 203 kts 346°
2026-04-21 03:11 39.78507 116.64718 4019 ft 202 kts 347°
2026-04-21 03:11 39.78619 116.64691 4017 ft 202 kts 347°
2026-04-21 03:11 39.79172 116.64553 4064 ft 193 kts 347°
2026-04-21 03:12 39.79773 116.64402 3988 ft 199 kts 346°
2026-04-21 03:12 39.81122 116.64047 3964 ft 202 kts 346°
2026-04-21 03:12 39.82496 116.63693 3966 ft 200 kts 348°
2026-04-21 03:12 39.83895 116.63426 3975 ft 204 kts 350°
2026-04-21 03:13 39.85293 116.63200 3985 ft 198 kts 351°
2026-04-21 03:13 39.86624 116.62995 3803 ft 189 kts 350°
2026-04-21 03:13 39.87919 116.62785 3553 ft 187 kts 350°
2026-04-21 03:13 39.89207 116.62581 3316 ft 186 kts 350°
2026-04-21 03:14 39.90482 116.62376 3071 ft 184 kts 351°
2026-04-21 03:14 39.91753 116.62182 2806 ft 183 kts 350°
2026-04-21 03:14 39.93002 116.61991 2600 ft 182 kts 350°
2026-04-21 03:14 39.94254 116.61791 2336 ft 177 kts 350°
2026-04-21 03:15 39.95447 116.61598 2134 ft 169 kts 351°
2026-04-21 03:15 39.96575 116.61429 1897 ft 158 kts 351°
2026-04-21 03:15 39.97630 116.61265 1690 ft 150 kts 349°
2026-04-21 03:15 39.98647 116.61100 1478 ft 144 kts 350°
2026-04-21 03:16 39.99623 116.60947 1295 ft 138 kts 350°
2026-04-21 03:16 40.00558 116.60799 1094 ft 134 kts 350°
2026-04-21 03:16 40.01497 116.60653 942 ft 137 kts 351°
2026-04-21 03:16 40.02428 116.60506 755 ft 133 kts 351°
2026-04-21 03:17 40.03360 116.60356 568 ft 135 kts 352°
2026-04-21 03:17 40.04184 116.60225 428 ft 133 kts 352°
2026-04-21 03:17 40.05108 116.60085 255 ft 133 kts 353°
2026-04-21 03:17 40.06018 116.59947 124 ft 126 kts 352°
2026-04-21 03:18 40.06781 116.59821 119 ft 96 kts 353°
2026-04-21 03:18 40.07244 116.59741 123 ft 54 kts 344°
2026-04-21 03:18 40.07392 116.59639 123 ft 1 kts 328°
2026-04-21 03:18 40.07415 116.59616 121 ft 7 kts 324°
2026-04-21 03:19 40.07472 116.59562 121 ft 13 kts 320°
2026-04-21 03:19 40.07489 116.59445 124 ft 15 kts 263°
2026-04-21 03:19 40.07474 116.59291 120 ft 19 kts 257°
2026-04-21 03:19 40.07448 116.59123 121 ft 20 kts 264°
2026-04-21 03:20 40.07457 116.58960 121 ft 14 kts 315°
2026-04-21 03:20 40.07525 116.58946 124 ft 0 kts 354°